SnugLite
1 43784U 18099AC  24208.72496823  .00009192  00000-0  61918-3 0  9999
2 43784  97.4916 263.9958 0005232 161.0606 199.0817 15.06891397308597
ITASat 1
1 43786U 18099AE  24208.89701325  .00007920  00000-0  56218-3 0  9999
2 43786  97.5081 265.0505 0016570 212.3167 147.7046 15.04887421308543
EAGLET 1
1 43790U 18099AJ  24208.98362326  .00006501  00000-0  48270-3 0  9991
2 43790  97.5242 265.6232 0013626 191.4533 168.6384 15.03297134308253
ESEO
1 43792U 18099AL  24209.23631914  .00003640  00000-0  29759-3 0  9996
2 43792  97.5160 262.4726 0011135 172.3070 187.8326 14.99918758308204
CSIM
1 43793U 18099AM  24208.60484023  .00025220  00000-0  12592-2 0  9998
2 43793  97.5266 273.0211 0013046 171.9073 188.2374 15.17401255308758
JO-97
1 43803U 18099AX  24208.58668979  .00012232  00000-0  79176-3 0  9992
2 43803  97.5166 266.3970 0010550 162.2119 197.9480 15.08257638308633
Suomi 100
1 43804U 18099AY  24208.12810489  .00008669  00000-0  57511-3 0  9996
2 43804  97.5235 265.7370 0016361 164.4983 195.6749 15.07381374308544
ISAT
1 43879U 18111D   24208.67899473  .00014790  00000-0  87220-3 0  9995
2 43879  97.6147 114.2144 0011589 214.9645 145.0825 15.11609599305389
UWE-4
1 43880U 18111E   24209.22132839  .00012251  00000-0  74401-3 0  9992
2 43880  97.6061 114.6713 0014937 225.8016 134.1987 15.10550132305470
Sparrow
1 43881U 18111F   24209.23207961  .00014580  00000-0  84742-3 0  9999
2 43881  97.6232 116.7442 0007898 258.7481 101.2861 15.12166593305531
Prox-1
1 44339U 19036A   24209.43780252  .00011380  00000-0  19094-2 0  9998
2 44339  24.0003 326.2951 0009598  86.7433 273.4160 14.67837526271253
SONATE
1 44400U 19038Q   24208.90038859  .00025893  00000-0  73427-3 0  9994
2 44400  97.7135 204.8249 0013203 331.7868  28.2659 15.36137028280176
Taurus 1
1 44530U 19059C   24209.51699531  .00007986  00000-0  18219-2 0  9999
2 44530  98.5788 330.7768 0010272 288.7082  71.2999 14.56032411257631
Duchifat 3
1 44854U 19089C   24209.20558236  .00018544  00000-0  89721-3 0  9992
2 44854  36.9554 165.7799 0003093  62.3140 297.7921 15.17889151254356
TO-108
1 44881U 19093C   24209.50168267  .00001592  00000-0  19782-3 0  9996
2 44881  97.8270 285.5081 0014222 185.4146 174.6916 14.83899189249020
FloripaSat 1
1 44885U 19093G   24209.42773448  .00006571  00000-0  67197-3 0  9999
2 44885  97.8392 291.7091 0012783 177.1684 182.9609 14.90828159249369
RS-44
1 44909U 19096E   24209.14018635  .00000020  00000-0  41456-4 0  9992
2 44909  82.5194  78.2282 0216815 318.0531  40.4135 12.79732276214088
BY70-2
1 45857U 20042B   24209.51034357  .00393926  00000-0  67561-2 0  9991
2 45857  97.8997 306.2058 0004945 256.8355 103.2343 15.49737897220752
UPMSat 2
1 46276U 20061E   24208.15380224  .00017941  00000-0  52162-3 0  9996
2 46276  97.2942 273.9824 0001324  65.0914 295.0467 15.35507952216150
AmicalSat
1 46287U 20061R   24209.23193429  .00039781  00000-0  97927-3 0  9991
2 46287  97.3455 276.5885 0002602 107.1881 252.9650 15.40491250215726
SALSAT
1 46495U 20068K   24209.40569065  .00006997  00000-0  39035-3 0  9990
2 46495  97.8182 169.7322 0014251 167.6724 192.4858 15.13809538210396
UVSQ-SAT
1 47438U 21006AB  24209.43473389  .00069366  00000-0  10813-2 0  9998
2 47438  97.3215 270.6110 0004868  84.4595 275.7213 15.53617411194974
YUSAT 1
1 47439U 21006AC  24209.42166667  .01913295  34408-2  17395-2 0  9999
2 47439  97.3048 277.4779 0012022 256.8581 103.1363 16.13300734195421
SOMP 2b
1 47445U 21006AJ  24209.20468221  .00055752  00000-0  10084-2 0  9994
2 47445  97.3186 268.4393 0006157  91.4495 268.7461 15.49484293194845
IDEASSat
1 47458U 21006AX  24209.06582347  .00051955  00000-0  10597-2 0  9998
2 47458  97.3296 268.7008 0006565  91.6642 268.5359 15.46024116194740
CubeSX-Sirius-HSE
1 47951U 21022V   24209.48646627  .00025414  00000-0  93988-3 0  9999
2 47951  97.4543 107.7899 0013182   7.1478 352.9946 15.27604273184720
CubeSX-HSE
1 47952U 21022W   24209.50226646  .00024756  00000-0  91241-3 0  9996
2 47952  97.4545 107.9049 0013087   6.5479 353.5929 15.27723557184736
KSU-Cubesat
1 47954U 21022Y   24208.94983529  .00034389  00000-0  11408-2 0  9994
2 47954  97.4551 108.8675 0011619   4.7259 355.4089 15.31107457184463
GRBAlpha
1 47959U 21022AD  24209.46407678  .00025125  00000-0  92340-3 0  9996
2 47959  97.4547 108.0234 0012939   6.7845 353.3567 15.27815724183550
Orbicraft-Zorkiy
1 47960U 21022AE  24209.46816242  .00026480  00000-0  90787-3 0  9997
2 47960  97.4589 109.4589 0011762   5.4176 354.7189 15.30092671184314
STECCO
1 47962U 21022AG  24208.99352496  .00437140  00000-0  23520-2 0  9991
2 47962  97.4474 121.0493 0005883 145.7253 214.4394 15.79023488184362
MO-110
1 47964U 21022AJ  24209.42839774  .06058814  25082-5  18456-2 0  9998
2 47964  97.4302 124.3639 0010937 202.0180 158.0643 16.26713361184600
TUBIN
1 48900U 21059X   24209.51647634  .00018589  00000-0  60908-3 0  9998
2 48900  97.6506 355.3791 0005825 306.3178  53.7525 15.31688640171094
LEDSAT
1 49069U 21073D   24209.19751785  .00019303  00000-0  73932-3 0  9994
2 49069  97.4351 280.0981 0019750 141.0773 219.1892 15.26396632162556
CUTE
1 49263U 21088D   24208.61688194  .00021432  00000-0  95463-3 0  9994
2 49263  97.4939 274.3894 0012030 303.2971  56.7111 15.21401088155636
TeikyoSat 4
1 49396U 21102B   24209.15063726  .00003270  00000-0  23647-3 0  9991
2 49396  97.4561 252.7479 0014294 136.3588 223.8771 15.04627668148766
Z-Sat
1 49399U 21102E   24209.46618512  .00005785  00000-0  36882-3 0  9995
2 49399  97.4289 254.7042 0021782 118.1814 242.1618 15.08899780149062
KOSEN 1
1 49402U 21102H   24209.35722840  .00008260  00000-0  48042-3 0  9990
2 49402  97.4208 256.1873 0020198 103.0586 257.2901 15.12139992149211
HO-113
1 50466U 21131B   24209.50460705  .00000953  00000-0  31828-3 0  9995
2 50466  98.5281 294.3876 0004320  22.9589 337.1792 14.39751039135800
Tevel-3
1 50988U 22002E   24209.48290119  .00949139  43521-3  19388-2 0  9991
2 50988  97.3590 288.1224 0010925 249.6452 110.3653 15.99392310141413
Tevel-8
1 50989U 22002F   24209.28398601  .00862673  34485-3  18918-2 0  9999
2 50989  97.3656 287.9862 0011367 250.5848 109.4201 15.98087809141379
Tevel-1
1 51013U 22002AF  24209.27782902  .00837164  32089-3  18761-2 0  9999
2 51013  97.3641 287.7091 0011081 249.1893 110.8197 15.97695675141376
IRIS-A
1 51044U 22002BN  24209.21143170  .00023375  00000-0  72356-3 0  9992
2 51044  97.3814 275.6244 0004983 237.6898 122.3862 15.33461569140557
Tevel-7
1 51062U 22002CG  24209.44454040  .00991327  48218-3  19931-2 0  9994
2 51062  97.3619 288.1619 0011009 251.5546 108.4536 15.99684216141403
Tevel-4
1 51063U 22002CH  24209.46387971  .00762520  25592-3  18576-2 0  9990
2 51063  97.3666 287.9783 0010748 247.6676 112.3462 15.96157881141394
Tevel-2
1 51069U 22002CP  24209.29122627  .00910336  39470-3  18881-2 0  9991
2 51069  97.3598 287.8815 0011060 249.6212 110.3878 15.99107440141382
OreSat0
1 52017U 22026K   24208.92572856  .00117040  00000-0  13637-2 0  9992
2 52017  97.4910 225.2123 0011954  88.5774 271.6852 15.61201561131894
Planetum 1
1 52738U 22057G   24209.33443046  .00047975  00000-0  99692-3 0  9995
2 52738  97.5688 337.0469 0003829 358.5766   1.5471 15.45512236120762
Foresail-1
1 52766U 22057AL  24208.61907474  .00024828  00000-0  75861-3 0  9990
2 52766  97.5865 335.1136 0008643 355.2117   4.9041 15.33841437120498
SNUGLITE 2
1 52899U 22065F   24209.19073585  .00001974  00000-0  41150-3 0  9998
2 52899  98.1248 349.5755 0008265  36.3952 323.7809 14.61013137110106
IO-117
1 53106U 22080B   24206.16680960 -.00000003  00000-0  00000-0 0  9991
2 53106  70.1349 179.6741 0007614  98.9379 261.2142  6.42557625 47640
SelfieSat
1 53951U 22057BC  24209.35334774  .00167511  00000-0  15855-2 0  9999
2 53951  97.5680 341.9859 0004967 302.3268  57.7510 15.66419687121056
FO-118
1 54684U 22167C   24209.45026238  .00031022  00000-0  97787-3 0  9991
2 54684  97.6093 355.3146 0009118   4.7526 355.3801 15.32797395 90468
SSS-2B
1 56184U 23054G   24209.50049920  .00046215  00000-0  99475-3 0  9999
2 56184  97.3625 107.9165 0007636  53.1309 307.0639 15.44459655 72353
CIRBE
1 56188U 23054L   24209.23160381  .00098118  00000-0  12126-2 0  9994
2 56188  97.3538 110.3360 0004761  74.5472 285.6310 15.59791710 72511
INSPIRE-Sat 7
1 56211U 23054AK  24209.28037009  .00129046  00000-0  13762-2 0  9998
2 56211  97.3549 111.8223 0004190  48.5446 311.6172 15.63526116 72609
RoseyCubesat 1
1 56212U 23054AL  24209.51070779  .00219398  00000-0  16713-2 0  9995
2 56212  97.3546 113.2386 0003832  73.8335 286.3349 15.71584622 72714
SO-120
1 56992U 23084BU  24209.29351560  .00034640  00000-0  11564-2 0  9992
2 56992  97.5339 329.1683 0011717 240.3482 119.6592 15.30901466 62311
MRC-100
1 56993U 23084BV  24209.39928646  .00040106  00000-0  12329-2 0  9993
2 56993  97.5340 329.8193 0011188 238.7354 121.2793 15.33519872 62375
UmKA 1 (RS40S)
1 57172U 23091G   24209.48051929  .00006828  00000-0  44477-3 0  9995
2 57172  97.6093 261.1275 0015916 349.7607  10.3295 15.08150389 59565
CubeBel-2 (EU11S)
1 57175U 23091K   24209.47666515  .00008793  00000-0  55846-3 0  9995
2 57175  97.6093 261.1208 0014470   2.6787 357.4517 15.09012411 59568
